This is the latest recevied weather packets stored in our database for station/object CW79215. If no packets are shown the sender has not sent any weather packets the latest 10 day(s).
| Time | Temp. | Humidity | Pressure | Rain* | Wind** | Luminosity | Snow |
|---|---|---|---|---|---|---|---|
| 1788401138 | 12.78° C | 79% | 1033.2 hPa | - | - | - | - |
| 1788400238 | 12.78° C | 78% | 1033.2 hPa | - | - | - | - |
| 1788399338 | 13.33° C | 76% | 1033.2 hPa | - | - | - | - |
| 1788398438 | 13.89° C | 76% | 1033.3 hPa | - | - | - | - |
| 1788397538 | 13.89° C | 74% | 1033.3 hPa | - | - | - | - |
| 1788396638 | 13.89° C | 75% | 1033.2 hPa | - | - | - | - |
| 1788395738 | 13.89° C | 76% | 1033.1 hPa | - | - | - | - |
| 1788394838 | 13.89° C | 75% | 1033.2 hPa | - | - | - | - |
| 1788393938 | 14.44° C | 75% | 1033.1 hPa | - | - | - | - |
| 1788393038 | 15° C | 72% | 1033.1 hPa | - | - | - | - |
| 1788392137 | 14.44° C | 75% | 1033 hPa | - | - | - | - |
| 1788391237 | 15° C | 73% | 1033 hPa | - | - | - | - |
| 1788390337 | 15° C | 72% | 1033 hPa | - | - | - | - |
| 1788389437 | 15.56° C | 73% | 1032.9 hPa | - | - | - | - |
| 1788388537 | 15° C | 73% | 1032.9 hPa | - | - | - | - |
| 1788387637 | 15.56° C | 72% | 1032.8 hPa | - | - | - | - |
| 1788386737 | 15.56° C | 71% | 1032.8 hPa | - | - | - | - |
| 1788385837 | 16.11° C | 70% | 1032.7 hPa | - | - | - | - |
| 1788384937 | 16.11° C | 70% | 1032.8 hPa | - | - | - | - |
| 1788384036 | 16.11° C | 69% | 1032.5 hPa | - | - | - | - |
| 1788383136 | 17.22° C | 68% | 1032.6 hPa | - | - | - | - |
| 1788382236 | 17.22° C | 66% | 1032.5 hPa | - | - | - | - |
| 1788381337 | 17.22° C | 65% | 1032.3 hPa | - | - | - | - |
| 1788380437 | 17.78° C | 64% | 1032.2 hPa | - | - | - | - |
| 1788379537 | 17.78° C | 64% | 1032 hPa | - | - | - | - |
* Rain since midnight (hover to see other rain measurements)
** Current wind speed in m/s (hover to see current wind gust speed)